Location: Falniów
(50.3639°N, 19.9642°E)
Time: 18:59:37
(UTC+00:00)

SL-08 R/B - Pass Details

Date: 30 April 2026
Orbit: 667 x 728 km, 98.5° (Epoch: 13 May)

Event Time Altitude Azimuth Distance (km) Brightness Sun altitude
Rises 20:44:00 0° 5° (N) 3,164 7.6 -20.1°
Reaches altitude 10° 20:46:45 10° 350° (N) 2,236 7.0 -20.3°
Maximum altitude 20:50:22 21° 302° (WNW) 1,600 5.8 -20.6°
Drops below altitude 10° 20:53:57 10° 254° (WSW) 2,211 6.0 -20.8°
Sets 20:56:40 0° 239° (WSW) 3,118 6.6 -21.0°
